Satellite: LO-19
Catalog number: 20442
Epoch time:      05138.66285844
Element set:    0397
Inclination:      098.2259 deg
RA of node:       174.2163 deg
Eccentricity:    0.0011177
Arg of perigee:   293.3295 deg
Mean anomaly:     066.6712 deg
Mean motion:   14.31920371 rev/day
Decay rate:        5.6e-07 rev/day^2
Epoch rev:           79999
Checksum:              334

Satellite: UO-22
Catalog number: 21575
Epoch time:      05138.87013233
Element set:    0408
Inclination:      098.2416 deg
RA of node:       105.3113 deg
Eccentricity:    0.0007704
Arg of perigee:   169.8807 deg
Mean anomaly:     190.2547 deg
Mean motion:   14.39485796 rev/day
Decay rate:       2.63e-06 rev/day^2
Epoch rev:           72628
Checksum:              311

Satellite: KO-23
Catalog number: 22077
Epoch time:      05138.75498814
Element set:    0475
Inclination:      066.0872 deg
RA of node:       208.0902 deg
Eccentricity:    0.0015764
Arg of perigee:   263.3599 deg
Mean anomaly:     096.5628 deg
Mean motion:   12.86430151 rev/day
Decay rate:       -3.7e-07 rev/day^2
Epoch rev:           59980
Checksum:              332

Satellite: AO-27
Catalog number: 22825
Epoch time:      05139.84074065
Element set:     138
Inclination:      098.2510 deg
RA of node:       136.8414 deg
Eccentricity:    0.0008275
Arg of perigee:   354.5716 deg
Mean anomaly:     005.5568 deg
Mean motion:   14.29129935 rev/day
Decay rate:       1.87e-06 rev/day^2
Epoch rev:           60717
Checksum:              318

Satellite: IO-26
Catalog number: 22826
Epoch time:      05138.54710873
Element set:    0804
Inclination:      098.2465 deg
RA of node:       136.9020 deg
Eccentricity:    0.0009052
Arg of perigee:   356.2492 deg
Mean anomaly:     003.8559 deg
Mean motion:   14.29368951 rev/day
Decay rate:        6.2e-07 rev/day^2
Epoch rev:           60705
Checksum:              309

Satellite: KO-25
Catalog number: 22828
Epoch time:      05138.55086983
Element set:    0052
Inclination:      098.2433 deg
RA of node:       137.1091 deg
Eccentricity:    0.0010150
Arg of perigee:   332.6980 deg
Mean anomaly:     027.3675 deg
Mean motion:   14.29681743 rev/day
Decay rate:        3.4e-07 rev/day^2
Epoch rev:           57528
Checksum:              306

Satellite: TO-31
Catalog number: 25396
Epoch time:      05138.68128361
Element set:    0252
Inclination:      098.5302 deg
RA of node:       206.8149 deg
Eccentricity:    0.0001587
Arg of perigee:   256.9455 deg
Mean anomaly:     103.1456 deg
Mean motion:   14.23668826 rev/day
Decay rate:       -4.3e-07 rev/day^2
Epoch rev:           35621
Checksum:              306

Satellite: GO-32
Catalog number: 25397
Epoch time:      05139.52684846
Element set:     743
Inclination:      098.5197 deg
RA of node:       205.2076 deg
Eccentricity:    0.0000178
Arg of perigee:   216.4299 deg
Mean anomaly:     143.6869 deg
Mean motion:   14.23077876 rev/day
Decay rate:       -7.4e-07 rev/day^2
Epoch rev:           35625
Checksum:              342

Satellite: UO-36
Catalog number: 25693
Epoch time:      05139.72726059
Element set:     205
Inclination:      064.5603 deg
RA of node:       011.1116 deg
Eccentricity:    0.0028361
Arg of perigee:   215.5337 deg
Mean anomaly:     144.3863 deg
Mean motion:   14.78503502 rev/day
Decay rate:        9.4e-07 rev/day^2
Epoch rev:           32761
Checksum:              285

Satellite: SO-41
Catalog number: 26545
Epoch time:      05138.85491069
Element set:      77
Inclination:      064.5598 deg
RA of node:       028.2535 deg
Eccentricity:    0.0046319
Arg of perigee:   310.6614 deg
Mean anomaly:     049.0405 deg
Mean motion:   14.80093501 rev/day
Decay rate:       6.19e-06 rev/day^2
Epoch rev:           25058
Checksum:              305

Satellite: MO-46
Catalog number: 26548
Epoch time:      05138.71526607
Element set:    0185
Inclination:      064.5586 deg
RA of node:       011.6175 deg
Eccentricity:    0.0043427
Arg of perigee:   302.6435 deg
Mean anomaly:     057.0473 deg
Mean motion:   14.82718790 rev/day
Decay rate:       8.59e-06 rev/day^2
Epoch rev:           25092
Checksum:              321

Satellite: SO-42
Catalog number: 26549
Epoch time:      05138.82259677
Element set:    0142
Inclination:      064.5594 deg
RA of node:       036.8154 deg
Eccentricity:    0.0047564
Arg of perigee:   315.4158 deg
Mean anomaly:     044.3063 deg
Mean motion:   14.78972806 rev/day
Decay rate:       5.19e-06 rev/day^2
Epoch rev:           25041
Checksum:              324

Satellite: NO-44
Catalog number: 26931
Epoch time:      05138.79115070
Element set:      40
Inclination:      067.0538 deg
RA of node:       303.5022 deg
Eccentricity:    0.0006338
Arg of perigee:   261.5099 deg
Mean anomaly:     098.5555 deg
Mean motion:   14.29380065 rev/day
Decay rate:       -8.1e-07 rev/day^2
Epoch rev:           18956
Checksum:              301

Satellite: AO-49
Catalog number: 27605
Epoch time:      05138.71098746
Element set:    0742
Inclination:      064.5582 deg
RA of node:       224.9510 deg
Eccentricity:    0.0083287
Arg of perigee:   245.9515 deg
Mean anomaly:     113.2841 deg
Mean motion:   14.72088416 rev/day
Decay rate:       4.80e-06 rev/day^2
Epoch rev:           12951
Checksum:              318

Satellite: SO-50
Catalog number: 27607
Epoch time:      05138.66667904
Element set:     720
Inclination:      064.5597 deg
RA of node:       230.5658 deg
Eccentricity:    0.0083824
Arg of perigee:   244.8152 deg
Mean anomaly:     114.4237 deg
Mean motion:   14.70961236 rev/day
Decay rate:       7.92e-06 rev/day^2
Epoch rev:           12939
Checksum:              326

